カタログに戻る

STARLINK-30753

運用中通信VLEO
NORAD 58175·PAYLOAD·🇺🇸 United States

打ち上げ Oct 30, 2023 から Cape Canaveral Space Force Station

Loading…

次のパス (今後24時間)

TLE

最新Source: CelesTrak SupGP

元期: Sep 14, 2026, 22:19 UTC

1 58175C 23167A   26257.93034722 -.00060217  00000+0 -21812-2 0  2577
2 58175  43.0012 154.7864 0001310 268.1228 169.5850 15.27606215    17

AllMySatでSTARLINK-30753をリアルタイム追跡

Download on the App Store